Temperature
3 4 3 4 4 3 4 4 4 5 4 6 6 6 6 6 6 6 6 6 7 7 7 7 7 7 7 7 6 6 6 6 6 6 5 5 5 5 5 5 4 4 4 4
3 3 4 4 4 4 4 4 4 4 4 5 5 5 5 6 6 5 6 6 6 7 7 7 7 7 7 7 6 6 6 6 6 5 5 5 5 5 5 4 4 4 4 4
2 3 4 4 4 4 3 3 4 5 5 5 4 4 5 5 5 6 6 6 6 6 6 6 6 6 6 6 6 6 6 5 5 5 5 5 5 4 4 4 4 4 4 3
1 3 4 6 4 4 4 3 3 4 4 4 5 5 6 6 6 6 6 6 6 6 6 6 6 6 6 6 6 6 6 5 5 5 5 5 4 4 4 4 4 4 3 3
1 3 4 4 3 3 3 3 3 3 3 4 4 4 5 6 6 6 6 6 6 6 6 6 6 6 6 6 6 5 5 5 5 4 4 4 4 4 4 4 4 3 3 3
1 3 4 5 3 3 4 4 3 3 3 3 3 3 4 5 6 6 6 6 6 6 6 6 6 5 5 5 5 5 5 5 4 4 4 4 4 3 3 3 3 3 3 3
1 2 3 3 2 3 4 4 3 3 3 3 2 3 4 5 5 5 5 5 5 5 5 5 5 5 5 5 4 4 4 4 4 4 4 3 3 3 3 3 3 3 3 2
-0 1 3 2 1 2 3 3 3 3 3 3 3 3 4 4 4 4 5 5 5 5 5 5 5 5 4 4 4 4 4 3 3 3 3 3 3 3 2 2 2 2 2 2
1 2 2 2 2 3 3 3 3 3 3 3 3 3 3 3 4 4 4 4 4 4 4 4 4 4 4 3 3 3 3 3 3 3 3 2 2 2 2 2 2 1 1 1
-0 0 1 2 2 3 3 3 3 3 3 3 3 3 3 3 3 3 4 4 4 3 3 3 3 3 3 3 3 3 3 3 2 2 2 2 2 2 1 1 1 1 1 1
-1 -0 0 1 2 3 3 3 3 3 2 2 2 2 2 2 3 3 3 3 3 3 3 2 2 2 2 2 2 2 2 2 2 2 1 1 1 1 0 0 0 -0 0 -0
0 0 0 1 2 2 2 2 2 2 2 2 2 2 2 2 2 2 2 3 2 2 2 2 2 2 2 2 2 2 1 1 1 1 1 1 0 0 0 -0 -0 -0 -0 -1
1 1 1 2 2 2 2 2 2 2 2 2 2 2 2 2 2 2 2 2 2 2 2 2 2 1 1 1 1 1 1 0 0 0 -0 -0 -0 -0 -0 0 -0 -0 -0 -1
1 1 0 1 1 1 1 1 1 1 1 1 1 1 1 1 1 1 1 1 1 1 1 1 1 1 1 1 0 0 0 -0 -1 -1 -1 -1 -1 -1 -1 -1 -1 -0 -0 -1
-0 0 0 0 0 0 0 0 -0 -0 0 0 0 0 1 1 1 1 1 1 1 1 1 1 1 1 0 0 -0 -0 -0 -1 -1 -1 -1 -1 -1 -1 -1 -1 -1 -1 -1 -1
-1 -1 -1 -1 -1 -1 -1 -1 -1 -1 -1 -0 -0 -0 0 0 0 0 0 0 0 0 0 0 0 0 -0 -0 -0 -1 -1 -1 -1 -2 -2 -2 -2 -2 -2 -2 -2 -2 -2 -2
-2 -2 -2 -2 -2 -2 -2 -2 -1 -1 -1 -1 -1 -1 -1 -0 -0 -0 -0 -0 -0 -0 -0 -0 -0 -1 -1 -1 -1 -1 -1 -1 -2 -2 -2 -2 -2 -3 -3 -3 -3 -3 -3 -3
-1 -1 -1 -2 -2 -2 -2 -2 -2 -2 -2 -2 -2 -1 -1 -1 -1 -1 -1 -1 -1 -1 -1 -1 -1 -1 -1 -1 -2 -2 -2 -2 -2 -2 -3 -3 -3 -3 -3 -4 -3 -3 -3 -3
-2 -2 -2 -2 -2 -2 -2 -2 -2 -2 -2 -2 -2 -2 -2 -2 -2 -2 -2 -2 -1 -1 -1 -2 -2 -2 -2 -2 -2 -2 -2 -3 -3 -3 -3 -3 -4 -4 -4 -4 -4 -4 -4 -4
-3 -3 -3 -3 -3 -3 -3 -3 -3 -3 -3 -3 -2 -2 -2 -2 -2 -2 -2 -2 -2 -2 -2 -2 -2 -2 -2 -2 -3 -3 -3 -3 -3 -4 -4 -4 -4 -4 -4 -4 -4 -4 -4 -4
-4 -3 -4 -4 -4 -4 -4 -4 -3 -3 -3 -3 -3 -3 -3 -3 -3 -3 -3 -3 -3 -3 -3 -3 -3 -3 -3 -3 -3 -4 -4 -4 -4 -4 -4 -4 -5 -5 -5 -5 -5 -5 -5 -5
-4 -4 -4 -4 -4 -4 -4 -4 -4 -4 -4 -4 -4 -4 -4 -4 -4 -4 -4 -4 -4 -4 -4 -4 -4 -4 -4 -4 -4 -4 -4 -4 -4 -5 -5 -5 -5 -5 -5 -5 -5 -5 -5 -5
-5 -5 -5 -5 -5 -5 -5 -5 -5 -5 -5 -5 -5 -5 -5 -5 -5 -5 -5 -5 -5 -5 -5 -4 -4 -4 -4 -5 -5 -5 -5 -5 -5 -5 -5 -5 -5 -5 -6 -6 -6 -6 -6 -6
-5 -5 -5 -5 -5 -6 -6 -6 -6 -6 -6 -6 -6 -6 -6 -6 -6 -5 -5 -5 -5 -5 -5 -5 -5 -5 -5 -5 -5 -5 -5 -5 -5 -6 -6 -6 -6 -6 -6 -6 -6 -6 -6 -6
-6 -6 -6 -6 -6 -6 -6 -7 -7 -7 -7 -6 -6 -6 -6 -6 -6 -6 -6 -6 -6 -6 -6 -6 -6 -6 -6 -6 -5 -6 -6 -6 -6 -6 -6 -6 -6 -6 -6 -6 -6 -6 -6 -6
-7 -7 -7 -7 -7 -7 -7 -7 -7 -7 -7 -7 -7 -7 -7 -7 -7 -6 -6 -6 -6 -6 -6 -6 -6 -6 -6 -6 -6 -6 -6 -6 -6 -6 -6 -6 -6 -6 -6 -6 -6 -6 -6 -6
-7 -7 -7 -7 -8 -8 -8 -8 -8 -8 -8 -8 -8 -7 -7 -7 -7 -7 -7 -7 -7 -6 -6 -6 -6 -6 -6 -6 -6 -6 -6 -6 -6 -6 -6 -6 -6 -7 -7 -7 -6 -6 -6 -7
Wind_Speed
4 2 3 5 8 10 10 9 9 9 10 11 8 6 5 4 4 4 5 5 4 4 3 3 3 3 3 3 2 1 1 1 2 3 2 1 1 1 1 0 1 1 0 0
3 3 3 6 8 12 12 9 10 8 11 8 5 4 4 4 3 5 6 5 5 4 3 3 4 4 3 3 2 1 1 2 2 2 1 1 1 0 1 1 1 1 1 1
3 2 2 8 11 13 8 7 8 11 10 3 4 6 7 6 5 6 6 6 5 4 4 4 4 3 3 3 2 1 1 2 2 2 1 1 1 1 1 1 1 1 1 0
2 2 7 6 2 7 8 6 7 5 4 4 6 7 6 5 5 5 6 6 6 4 4 3 3 2 2 1 0 0 1 2 2 1 1 0 1 1 1 1 1 1 1 1
3 4 7 5 0 3 5 7 6 8 7 5 4 4 5 4 4 6 5 5 5 4 3 2 1 1 1 1 2 1 1 2 2 1 0 1 0 1 1 1 2 2 2 2
2 4 6 3 3 2 3 4 3 5 6 2 1 2 6 4 4 4 3 3 2 2 2 1 1 2 3 2 2 1 1 1 1 1 2 1 1 1 2 2 2 2 3 2
3 4 5 3 3 2 4 5 4 2 3 3 4 5 5 4 3 2 3 2 2 2 2 2 1 3 3 3 2 2 2 3 3 3 2 2 2 2 2 3 3 3 3 3
3 3 6 1 3 3 4 2 2 2 2 2 3 3 3 2 3 3 4 3 3 3 3 3 3 4 4 3 2 3 3 3 3 3 3 3 3 3 3 3 3 3 3 4
7 6 3 3 3 3 1 1 2 2 2 1 2 3 3 2 2 3 3 3 3 3 3 4 3 3 3 2 3 3 4 4 4 4 4 3 3 3 3 3 2 2 2 2
4 6 4 3 3 2 1 1 1 1 1 1 2 2 2 2 2 3 3 3 3 3 4 3 3 3 3 3 3 3 3 3 3 3 4 4 3 3 2 2 2 2 2 2
5 5 4 3 3 2 2 2 2 2 2 1 1 2 1 2 2 2 2 2 2 3 3 3 3 3 3 3 3 4 3 3 3 3 3 3 3 3 2 2 1 1 2 2
6 4 3 5 3 2 2 2 2 2 3 3 1 2 1 2 2 2 2 2 2 3 3 3 3 3 4 3 3 3 3 3 3 3 3 3 3 4 5 4 5 5 5 4
4 2 3 3 1 1 2 2 2 1 1 2 3 1 1 2 2 2 2 2 1 2 2 2 3 3 3 3 3 3 2 2 2 2 2 2 2 2 4 6 6 6 6 7
1 1 1 2 2 2 2 2 2 2 2 1 1 2 1 2 2 2 1 1 1 2 2 3 3 3 3 3 3 3 3 3 2 2 1 2 2 2 2 3 4 5 6 7
2 2 2 1 1 2 2 2 3 3 3 2 2 2 2 2 1 2 2 2 2 3 2 2 3 3 3 2 3 2 2 2 2 1 2 2 2 2 2 3 3 4 4 6
3 2 2 2 1 2 2 2 1 2 2 2 2 2 2 1 1 2 2 2 2 1 1 1 1 2 2 2 2 2 2 3 3 2 2 2 2 2 3 3 4 4 4 4
1 1 2 1 1 1 1 1 1 1 1 1 2 2 2 2 2 2 3 2 2 1 1 1 1 2 2 2 1 1 1 2 4 3 2 2 2 3 3 3 4 4 4 5
2 3 3 3 2 2 2 2 1 1 1 1 1 2 2 2 1 2 2 2 3 3 3 2 2 2 2 2 1 1 1 1 1 2 2 2 3 3 3 3 4 5 5 6
2 1 1 1 1 1 1 2 2 1 1 0 0 0 1 1 1 1 2 2 2 2 3 3 3 3 2 2 2 1 1 1 2 2 2 3 3 3 3 3 4 4 5 5
3 1 1 1 1 1 1 1 1 1 1 0 1 1 2 2 1 1 1 1 1 1 2 2 2 1 1 1 2 1 1 1 2 2 2 2 3 3 3 4 4 5 5 5
3 2 2 2 2 2 1 1 1 1 1 1 1 1 1 1 2 1 1 2 3 2 2 3 2 2 2 2 2 1 1 1 2 2 2 3 3 3 4 4 5 5 5 5
2 2 2 2 2 2 2 2 2 2 2 2 2 1 1 2 2 2 1 2 2 3 2 1 1 2 3 2 1 1 1 2 2 2 2 3 3 3 4 4 5 5 5 5
2 2 2 2 2 2 3 3 2 2 1 1 1 1 1 1 1 1 2 2 2 3 3 2 3 4 4 2 1 1 2 2 2 2 3 3 3 4 4 5 5 5 5 5
2 2 2 2 2 3 2 2 2 2 2 2 2 1 1 1 2 2 2 3 4 5 3 3 4 5 5 2 2 2 2 2 2 3 3 3 3 4 4 5 5 5 5 6
2 2 3 2 2 1 1 2 2 3 3 3 3 3 2 1 1 2 3 3 4 4 3 4 5 5 4 2 2 2 3 3 3 3 3 3 4 4 4 4 5 5 5 5
2 2 2 1 1 1 1 1 2 2 2 3 3 3 3 2 2 2 2 3 3 4 4 3 3 3 3 2 3 3 3 3 4 3 4 4 4 5 5 5 6 5 5 5
3 3 3 3 3 3 2 2 2 2 2 2 3 3 3 3 3 3 3 3 3 3 3 3 3 3 3 3 3 3 3 3 3 3 4 4 4 4 5 5 5 5 5 5
Wind_Direction
272 271 195 213 204 195 204 205 208 233 239 257 260 266 273 275 291 305 305 304 291 282 283 290 296 293 289 285 293 290 300 291 289 290 285 300 281 272 283 301 303 296 276 306
276 271 238 247 227 210 220 220 231 253 262 257 258 264 267 262 270 285 290 294 287 282 291 291 287 284 285 281 280 295 285 284 297 304 316 311 314 330 13 4 356 13 43 33
238 273 287 256 220 203 208 209 201 229 245 270 271 256 251 247 249 266 278 286 284 271 266 269 270 267 265 266 273 296 299 302 306 304 297 271 345 31 9 348 19 11 5 37
170 166 230 246 193 188 200 220 211 236 256 240 251 263 251 230 233 263 277 281 282 278 271 271 265 266 268 272 345 325 309 303 303 325 306 317 58 3 348 7 19 11 353 346
173 214 265 290 256 170 195 247 229 241 263 282 308 325 286 249 237 245 260 273 277 275 264 261 262 256 103 54 45 47 7 339 326 328 43 72 57 334 360 18 21 19 15 27
175 204 226 281 315 284 148 265 290 236 251 267 49 282 276 291 281 283 300 308 315 332 357 13 352 78 79 54 42 10 339 346 6 48 76 71 42 16 20 36 30 27 22 29
200 232 255 304 346 82 154 265 314 247 242 207 208 236 273 310 312 304 316 331 9 28 21 1 34 92 87 66 27 353 27 43 47 55 69 75 57 36 42 40 38 31 22 20
168 221 257 328 103 176 247 303 318 295 270 235 261 296 313 327 333 344 350 356 19 36 21 19 55 90 83 56 20 45 58 58 52 47 50 52 65 44 44 50 41 27 24 12
199 220 275 203 217 261 262 274 299 314 314 319 322 313 329 336 339 349 0 3 15 47 40 34 46 75 82 38 42 57 61 57 50 46 45 45 56 51 39 42 40 17 15 3
245 266 277 270 295 300 249 274 315 341 343 328 313 309 333 347 349 354 0 8 23 51 50 32 34 50 61 56 64 72 67 55 52 52 41 35 30 32 36 26 19 3 355 341
249 278 302 287 276 302 339 357 7 355 332 288 301 310 317 335 338 341 355 12 48 66 55 36 37 39 43 60 74 72 64 50 43 45 48 32 21 13 8 354 337 335 317 303
234 234 232 267 281 291 297 302 312 329 328 332 316 285 313 326 334 344 4 19 44 51 55 47 45 37 31 47 71 80 64 46 41 37 33 25 16 5 5 4 355 349 343 333
249 261 257 283 301 313 289 304 315 312 295 312 325 319 335 336 352 8 20 40 48 44 46 54 50 45 34 42 61 74 71 52 46 39 28 14 7 1 349 353 357 353 352 345
293 17 296 298 298 318 325 339 8 8 359 355 340 355 21 16 18 29 10 358 41 58 52 54 53 39 25 39 55 53 52 41 37 33 14 1 352 345 341 338 338 341 344 343
330 318 259 312 5 18 19 35 35 15 7 9 17 22 26 34 15 352 351 21 60 65 58 56 49 23 16 39 50 49 45 35 30 26 11 4 354 350 346 338 328 328 336 339
309 348 40 63 49 25 27 35 31 340 348 356 3 359 1 18 11 9 15 50 71 55 39 45 22 357 15 38 43 43 36 17 15 18 12 7 359 352 344 336 330 327 325 326
4 318 319 315 304 309 303 295 268 281 325 344 337 349 8 25 26 19 10 24 55 48 32 27 352 9 31 38 48 40 22 3 2 3 1 354 346 339 332 327 323 320 317 318
246 237 235 230 237 250 283 305 294 284 280 295 346 24 32 34 17 359 7 29 40 32 18 9 10 27 29 24 36 34 12 360 359 350 343 341 332 326 323 319 316 316 318 320
324 300 279 274 263 238 256 275 280 280 295 316 12 6 6 13 30 22 25 41 39 8 349 6 16 27 12 355 3 16 360 340 334 330 325 323 327 328 321 315 314 314 314 315
355 354 8 2 4 347 314 310 320 343 334 334 90 56 26 12 21 30 42 19 336 301 313 342 357 351 336 332 345 341 331 315 311 314 320 318 313 313 313 312 311 312 312 311
13 28 38 35 20 19 18 34 67 30 4 41 96 102 21 354 358 2 21 346 334 347 350 353 354 333 324 320 334 327 316 308 305 302 304 304 305 307 309 311 312 311 310 310
19 38 36 36 42 28 17 27 49 55 48 41 46 63 56 17 5 360 331 288 301 328 339 331 322 322 327 333 329 318 308 302 300 300 300 301 301 303 307 308 307 305 306 306
6 23 33 37 49 36 25 29 36 47 51 38 34 34 20 339 326 316 312 319 317 327 335 320 321 327 331 340 326 316 307 300 297 297 296 295 296 296 298 300 300 300 302 304
11 24 32 45 71 69 42 15 21 29 33 21 16 13 6 347 338 326 292 307 325 327 329 324 328 328 333 339 326 313 302 295 292 293 293 293 293 295 295 295 295 295 296 298
26 40 51 60 66 62 54 37 41 38 34 24 12 5 357 337 300 305 316 321 324 329 327 326 328 330 334 325 315 303 294 284 281 284 285 288 291 293 292 292 292 293 294 294
37 37 32 26 32 42 43 45 33 17 17 10 358 356 356 351 338 324 325 329 327 326 327 320 318 318 313 305 299 295 290 291 296 295 289 289 289 288 289 291 291 291 293 293
42 42 40 33 28 28 30 31 26 3 356 351 337 336 341 340 339 337 331 328 326 322 317 315 312 305 299 295 292 291 291 287 284 282 282 282 282 282 285 287 290 292 294 297
Height
1433 1432 1434 1433 1435 1438 1439 1439 1441 1435 1434 1423 1421 1421 1420 1419 1419 1418 1416 1415 1414 1413 1413 1412 1412 1411 1411 1411 1411 1410 1409 1408 1407 1407 1406 1405 1404 1403 1403 1402 1402 1401 1401 1400
1434 1431 1430 1430 1430 1431 1432 1432 1432 1430 1427 1419 1419 1419 1418 1418 1417 1416 1414 1413 1412 1412 1411 1410 1410 1409 1409 1409 1409 1409 1408 1407 1406 1405 1404 1403 1403 1402 1401 1401 1400 1400 1399 1399
1435 1432 1427 1426 1421 1423 1425 1424 1425 1425 1419 1418 1418 1417 1415 1415 1415 1414 1412 1411 1410 1409 1409 1408 1408 1407 1407 1407 1407 1407 1406 1405 1404 1403 1402 1402 1401 1401 1400 1399 1399 1398 1397 1397
1437 1432 1429 1412 1411 1412 1416 1417 1418 1416 1414 1414 1414 1412 1412 1412 1412 1411 1410 1409 1408 1408 1407 1407 1406 1406 1405 1405 1404 1404 1403 1403 1402 1401 1400 1400 1400 1399 1399 1398 1397 1396 1396 1396
1435 1430 1421 1413 1413 1414 1416 1415 1413 1413 1412 1412 1412 1411 1409 1409 1410 1409 1408 1407 1406 1405 1405 1405 1404 1404 1403 1403 1402 1401 1401 1400 1400 1399 1399 1398 1398 1398 1397 1396 1396 1395 1395 1394
1434 1426 1416 1412 1411 1409 1411 1413 1409 1409 1410 1411 1411 1414 1408 1407 1407 1406 1406 1405 1404 1403 1403 1402 1402 1402 1401 1401 1400 1400 1399 1399 1399 1398 1398 1397 1396 1396 1396 1395 1395 1394 1394 1394
1432 1427 1416 1413 1411 1409 1415 1412 1408 1407 1407 1408 1409 1408 1407 1405 1405 1404 1404 1403 1403 1402 1401 1401 1400 1400 1400 1399 1399 1399 1398 1398 1397 1397 1396 1396 1395 1395 1395 1394 1394 1393 1393 1392
1431 1427 1418 1412 1412 1414 1411 1408 1407 1406 1406 1406 1406 1405 1404 1403 1403 1402 1401 1401 1401 1401 1400 1399 1399 1398 1398 1398 1398 1398 1398 1397 1397 1396 1395 1395 1395 1394 1394 1393 1392 1392 1391 1391
1419 1415 1410 1409 1408 1408 1408 1407 1407 1406 1405 1405 1404 1404 1403 1402 1402 1401 1401 1400 1400 1400 1399 1399 1398 1398 1398 1398 1398 1398 1397 1397 1396 1396 1395 1395 1394 1394 1393 1393 1392 1391 1391 1390
1415 1410 1408 1407 1407 1406 1406 1407 1406 1406 1405 1405 1404 1403 1402 1401 1401 1401 1400 1400 1400 1399 1399 1398 1398 1398 1399 1399 1398 1398 1397 1396 1396 1395 1395 1395 1394 1394 1393 1392 1392 1391 1390 1390
1411 1408 1406 1405 1405 1405 1405 1405 1405 1404 1404 1404 1403 1402 1401 1401 1400 1400 1400 1400 1399 1399 1399 1399 1399 1399 1399 1398 1398 1397 1396 1396 1395 1395 1394 1393 1393 1394 1393 1393 1392 1391 1390 1390
1406 1403 1404 1403 1403 1404 1403 1403 1403 1403 1402 1402 1402 1401 1401 1400 1400 1400 1399 1399 1399 1399 1399 1399 1399 1399 1399 1398 1398 1397 1396 1395 1395 1394 1394 1393 1393 1392 1392 1392 1392 1391 1390 1389
1401 1400 1401 1400 1401 1402 1402 1401 1401 1401 1400 1400 1400 1400 1400 1399 1399 1399 1399 1399 1399 1399 1399 1399 1398 1399 1399 1398 1398 1397 1396 1395 1395 1394 1394 1393 1392 1391 1390 1391 1391 1390 1389 1388
1399 1399 1398 1398 1399 1400 1399 1399 1399 1398 1398 1398 1398 1398 1398 1398 1398 1398 1398 1398 1398 1399 1399 1399 1399 1398 1398 1398 1397 1397 1396 1396 1395 1394 1394 1393 1392 1391 1390 1389 1388 1387 1387 1386
1397 1397 1397 1397 1398 1398 1398 1397 1397 1396 1396 1396 1397 1397 1397 1397 1397 1397 1398 1398 1398 1398 1398 1398 1398 1398 1398 1398 1397 1396 1396 1395 1395 1394 1393 1393 1392 1391 1390 1389 1387 1386 1385 1384
1395 1395 1395 1395 1395 1395 1395 1395 1395 1395 1395 1395 1395 1395 1396 1396 1396 1396 1396 1396 1396 1397 1397 1397 1397 1397 1397 1396 1396 1395 1395 1394 1394 1393 1392 1391 1390 1389 1388 1387 1386 1384 1383 1382
1393 1393 1393 1393 1393 1393 1394 1394 1394 1394 1394 1394 1394 1394 1394 1394 1394 1394 1395 1395 1395 1396 1396 1396 1396 1396 1396 1395 1394 1394 1393 1393 1392 1392 1391 1390 1389 1388 1387 1385 1384 1382 1381 1380
1392 1391 1391 1391 1391 1391 1392 1392 1392 1392 1392 1392 1392 1392 1392 1392 1392 1393 1393 1393 1394 1394 1394 1394 1394 1394 1394 1393 1393 1392 1392 1391 1391 1390 1389 1388 1387 1386 1385 1383 1382 1380 1379 1378
1389 1389 1389 1389 1390 1390 1389 1390 1390 1390 1391 1391 1390 1390 1391 1391 1391 1392 1392 1392 1392 1392 1392 1393 1392 1392 1392 1391 1391 1390 1390 1389 1389 1388 1387 1386 1385 1384 1382 1381 1380 1378 1377 1375
1387 1386 1387 1387 1387 1388 1388 1388 1388 1388 1388 1389 1389 1389 1389 1389 1390 1390 1390 1390 1390 1390 1391 1391 1390 1390 1390 1389 1389 1388 1388 1387 1386 1385 1384 1383 1382 1381 1380 1379 1377 1376 1374 1373
1385 1385 1385 1385 1385 1385 1386 1386 1386 1386 1386 1387 1386 1386 1387 1387 1388 1388 1388 1388 1389 1389 1389 1389 1388 1388 1387 1387 1387 1386 1386 1385 1384 1383 1382 1381 1380 1379 1377 1376 1375 1373 1372 1370
1384 1384 1383 1383 1383 1383 1384 1384 1384 1384 1384 1384 1385 1385 1385 1385 1386 1386 1387 1387 1387 1387 1387 1386 1386 1385 1385 1385 1384 1384 1383 1382 1381 1380 1379 1378 1377 1376 1374 1373 1372 1370 1369 1367
1383 1383 1382 1382 1382 1382 1382 1383 1383 1383 1383 1383 1383 1383 1383 1384 1384 1385 1384 1385 1385 1385 1384 1384 1384 1383 1383 1382 1382 1381 1380 1379 1378 1377 1376 1375 1374 1373 1371 1370 1369 1368 1366 1364
1383 1382 1382 1381 1381 1381 1381 1382 1382 1382 1382 1382 1382 1383 1383 1383 1383 1383 1383 1383 1383 1382 1382 1381 1381 1380 1380 1379 1378 1378 1377 1376 1375 1374 1373 1372 1371 1370 1369 1367 1366 1365 1363 1362
1383 1382 1381 1381 1380 1381 1381 1381 1381 1381 1381 1381 1382 1382 1382 1382 1381 1381 1381 1380 1380 1380 1379 1379 1378 1377 1377 1376 1375 1374 1374 1373 1372 1371 1370 1369 1368 1367 1366 1364 1363 1361 1360 1359
1383 1382 1382 1381 1381 1381 1380 1380 1380 1380 1380 1380 1380 1380 1380 1380 1380 1379 1378 1378 1377 1377 1376 1376 1375 1374 1373 1373 1372 1371 1370 1370 1369 1368 1367 1366 1365 1364 1362 1361 1360 1358 1357 1356
1383 1382 1382 1381 1381 1381 1381 1381 1380 1380 1380 1380 1379 1379 1379 1378 1377 1377 1376 1375 1374 1374 1373 1372 1372 1371 1370 1369 1368 1368 1367 1366 1366 1365 1364 1363 1362 1360 1359 1358 1357 1355 1354 1353